{"data":{"norad_id":43655,"epoch":"2026-05-25T04:02:15.352800Z","epoch_age_seconds":63969,"freshness":"FRESH","line1":"1 43655U 18081A   26145.16823325 -.00000089  00000+0 -43645-4 0  9993","line2":"2 43655  99.3297 154.2724 0001314  36.2453 323.8788 13.79306559381752","mean_motion":13.79306559,"eccentricity":0.0001314,"inclination_deg":99.3297,"raan_deg":154.2724,"arg_perigee_deg":36.2453,"mean_anomaly_deg":323.8788,"bstar":-4.3645e-5,"rev_number":38175,"period_min":104.40028655008,"perigee_km":965.38223910591,"apogee_km":967.31236958109,"semimajor_km":7344.4843043435,"source":"CELESTRAK","updated_at":"2026-05-25T13:37:55.865354Z"}}